User: anonymous   Login
Location: Unspecified
(0.0000°N, 0.0000°E)
Time: 09:39:40
(UTC+00:00)
Language:

LightSail 2 - Orbit

View from above orbital plane
View from above orbital plane
View from above satellite
View from above satellite

Ground track
Ground track

The orbit data is extracted from the following two-line orbital elements,

1 44420U 19036AC  19293.98913481  .00004901  00000-0  11065-2 0  9999
2 44420  24.0072 184.4303 0010722  25.9323 334.1647 14.53361666 15263
Epoch (UTC): 20 October 2019 23:44:21
Eccentricity: 0.0010722
inclination: 24.0072°
perigee height: 707 km
apogee height: 722 km
right ascension of ascending node: 184.4303°
argument of perigee: 25.9323°
revolutions per day: 14.53361666
mean anomaly at epoch: 334.1647°
orbit number at epoch: 1526

The dashed part of the orbit path shows where the satellite is in the earth's shadow,  

DLR